Stations météo

réclame
Mon MeteoGroup
Görlitz, Allemagne (10499): Température de l'air & dewpoint: 11.01.2019 01:00:00 - 17.01.2019 01:00:00 (CET)Görlitz, Allemagne (10499): Température de l'air 5cm & Température de l'air -5cm: 11.01.2019 01:00:00 - 17.01.2019 01:00:00 (CET)Görlitz, Allemagne (10499): Température de l'air -20cm & Température de l'air -100cm: 11.01.2019 01:00:00 - 17.01.2019 01:00:00 (CET)Görlitz, Allemagne (10499): Vitesse du vent & gusts: 11.01.2019 01:00:00 - 17.01.2019 01:00:00 (CET)Görlitz, Allemagne (10499): Direction du vent: 11.01.2019 01:00:00 - 17.01.2019 01:00:00 (CET)Görlitz, Allemagne (10499): reduced air pressure: 11.01.2019 01:00:00 - 17.01.2019 01:00:00 (CET)Görlitz, Allemagne (10499): visibility: 11.01.2019 01:00:00 - 17.01.2019 01:00:00 (CET)Görlitz, Allemagne (10499): Ensoleillement: 11.01.2019 01:00:00 - 17.01.2019 01:00:00 (CET)Görlitz, Allemagne (10499): Quantités de précipitations: 11.01.2019 01:00:00 - 17.01.2019 01:00:00 (CET)
Date & Time tt [°C] td [°C] tt 5cm [°C] tt -5cm [°C] tt -20cm [°C] tt -100cm [°C] ff [km/h] ff [knt] fx [km/h] fx [knt] dd ppp [hPa] vv [km] sd [min] rr [mm]
17.01.2019 01:00:00 2,6 -0,8 1,8 2,1 3,2 5,1 31 17 53 28 SSW 1003,8 20 0 0,0
17.01.2019 00:00:00 3,0 -0,6 2,1 2,3 3,3 5,1 36 20 55 30 SSW 1004,4 20 0 0,0
16.01.2019 23:00:00 3,2 -0,4 2,5 2,4 3,3 5,0 32 18 49 27 SSW 1005,4 22 0 0,0
16.01.2019 22:00:00 3,2 -0,3 2,3 2,5 3,4 5,0 34 18 47 25 SSW 1006,0 22 0 0,0
16.01.2019 21:00:00 3,1 -0,2 2,1 2,8 3,5 5,0 28 15 48 26 SSW 1006,5 30 0 0,0
16.01.2019 20:00:00 3,2 0,2 2,3 3,2 3,6 5,0 26 14 42 23 SSW 1007,0 36 0 0,0
16.01.2019 19:00:00 3,5 1,0 2,5 3,6 3,6 5,0 19 10 35 19 SSW 1008,0 24 0 0,0
16.01.2019 18:00:00 4,7 1,4 4,3 3,7 3,5 5,0 23 12 35 19 SSW 1008,3 44 0 0,0
16.01.2019 17:00:00 4,7 2,0 4,2 3,9 3,5 5,0 19 10 27 14 SW 1008,8 49 0 0,0
16.01.2019 16:00:00 5,0 2,4 4,7 4,0 3,4 5,0 17 9 32 17 SW 1009,3 49 0 0,0
16.01.2019 15:00:00 5,6 2,2 5,4 4,1 3,3 5,0 19 10 33 18 WSW 1009,3 70 0 0,0
16.01.2019 14:00:00 5,5 2,4 5,5 3,9 3,2 5,1 20 11 30 16 WSW 1009,7 53 0 0,0
16.01.2019 13:00:00 5,4 2,3 5,5 3,8 3,1 5,1 21 12 36 19 WSW 1010,5 61 0 0,0
16.01.2019 12:00:00 5,2 2,4 5,1 3,5 3,0 5,1 22 12 34 18 WSW 1010,9 49 0 0,0
16.01.2019 11:00:00 4,8 2,3 4,2 3,2 2,9 5,1 23 12 34 18 WSW 1011,4 42 0 0,0
16.01.2019 10:00:00 4,5 2,2 3,8 3,1 2,9 5,1 23 12 34 18 WSW 1011,6 42 3 0,0
16.01.2019 09:00:00 4,4 2,2 3,5 3,0 2,8 5,1 22 12 35 19 WSW 1011,6 44 0 0,0
16.01.2019 08:00:00 4,2 2,7 3,4 2,9 2,8 5,1 19 10 41 22 WSW 1011,4 18 0 0,0
16.01.2019 07:00:00 4,5 3,2 3,8 2,9 2,7 5,1 25 13 44 24 W 1011,0 22 0 0,0
16.01.2019 06:00:00 4,5 3,3 3,8 2,8 2,6 5,1 28 15 52 28 W 1010,7 19 0 0,0
16.01.2019 05:00:00 4,6 3,3 3,9 2,7 2,5 5,1 23 13 55 30 W 1010,1 20 0 0,0
16.01.2019 04:00:00 4,1 3,3 3,5 2,5 2,5 5,1 27 15 49 27 W 1009,9 11 0 0,1
16.01.2019 03:00:00 3,9 2,9 3,3 2,4 2,4 5,1 31 17 50 27 W 1009,8 4,4 0 0,5
16.01.2019 02:00:00 3,7 2,4 3,0 2,4 2,3 5,1 27 15 46 25 W 1009,5 11 0 0,6
16.01.2019 01:00:00 4,1 2,8 3,3 2,3 2,2 5,1 25 13 47 25 W 1009,6 9 0 1,0
16.01.2019 00:00:00 4,2 2,7 3,4 2,1 2,1 5,1 23 13 51 28 W 1009,4 10 0 0,4
15.01.2019 23:00:00 4,6 2,2 3,6 1,9 2,0 5,1 28 15 51 28 W 1009,2 19 0 0,0
15.01.2019 22:00:00 4,3 2,4 3,4 1,6 1,9 5,1 29 16 55 30 W 1009,3 16 0 0,0
15.01.2019 21:00:00 3,7 2,5 3,0 1,3 1,9 5,1 31 17 50 27 W 1008,9 16 0 0,0
15.01.2019 20:00:00 3,2 2,0 2,4 1,0 1,9 5,1 28 15 46 25 W 1008,9 16 0 0,0
15.01.2019 19:00:00 2,8 1,4 1,9 0,9 1,9 5,1 29 15 51 28 W 1009,2 19 0 0,0
15.01.2019 18:00:00 2,2 1,0 1,5 0,9 1,9 5,1 26 14 45 25 W 1009,7 22 0 0,6
15.01.2019 17:00:00 2,0 1,0 1,3 0,9 2,0 5,1 26 14 46 25 W 1010,2 8 0 0,1
15.01.2019 16:00:00 1,6 0,7 1,0 0,9 2,0 5,1 21 11 46 25 W 1010,8 11 0 0,1
15.01.2019 15:00:00 1,8 0,5 1,3 0,9 2,0 5,1 23 13 48 26 W 1010,9 16 0 0,0
15.01.2019 14:00:00 1,5 0,3 1,2 0,9 2,0 5,1 30 16 50 27 W 1011,1 11 0 0,0
15.01.2019 13:00:00 0,9 -0,1 0,7 0,9 2,0 5,1 28 15 52 28 W 1011,2 11 0 0,2
15.01.2019 12:00:00 2,1 -2,0 1,5 0,9 2,0 5,1 32 17 60 32 W 1011,3 25 0 0,0
15.01.2019 11:00:00 2,1 -2,2 1,4 0,9 2,1 5,1 38 21 68 37 W 1011,4 11 0 0,0
15.01.2019 10:00:00 1,8 -1,9 1,2 0,9 2,1 5,1 33 18 60 33 W 1012,0 7 0 0,0
15.01.2019 09:00:00 1,1 -1,8 0,6 0,9 2,1 5,1 33 18 53 29 W 1012,3 11 0 0,0
15.01.2019 08:00:00 0,8 -1,2 0,4 1,0 2,1 5,2 27 15 46 25 W 1012,2 14 0 0,0
15.01.2019 07:00:00 1,0 -2,0 0,5 1,0 2,2 5,1 20 11 47 25 W 1011,9 32 0 0,0
15.01.2019 06:00:00 0,8 -2,6 0,2 1,0 2,2 5,1 26 14 56 31 W 1011,8 33 0 0,0
15.01.2019 05:00:00 0,4 -2,1 0,0 1,0 2,2 5,1 25 13 56 30 W 1011,3 11 0 0,0
15.01.2019 04:00:00 0,2 -2,7 -0,4 1,0 2,3 5,1 22 12 46 25 W 1011,0 34 0 0,0
15.01.2019 03:00:00 -0,1 -2,7 -0,6 1,0 2,3 5,1 18 10 49 27 WNW 1011,1 20 0 0,0
15.01.2019 02:00:00 0,0 -3,2 -0,3 1,1 2,4 5,1 24 13 45 24 WNW 1010,9 38 0 0,0
15.01.2019 01:00:00 -0,2 -3,7 -0,5 1,1 2,4 5,1 27 14 52 28 W 1010,5 35 0 0,0
15.01.2019 00:00:00 -0,2 -3,8 -0,5 1,1 2,5 5,1 27 15 49 26 W 1010,4 40 0 0,0
14.01.2019 23:00:00 -0,4 -4,0 -1,0 1,2 2,5 5,1 28 15 49 26 W 1010,3 36 0 0,0
14.01.2019 22:00:00 -0,6 -4,1 -1,2 1,3 2,6 5,1 29 16 48 26 W 1009,8 43 0 0,0
14.01.2019 21:00:00 -1,1 -5,6 -2,2 1,3 2,6 5,1 28 15 45 24 W 1009,4 68 0 0,0
14.01.2019 20:00:00 -1,1 -7,1 -2,6 1,4 2,7 5,1 17 9 36 19 WNW 1008,6 70 0 0,0
14.01.2019 19:00:00 -1,2 -6,9 -2,8 1,5 2,8 5,1 13 7 35 19 WNW 1007,4 70 0 0,0
14.01.2019 18:00:00 -1,2 -6,0 -2,6 1,6 2,8 5,1 16 9 54 29 NW 1006,4 57 0 0,0
14.01.2019 17:00:00 -1,4 -5,0 -1,7 1,8 2,9 5,1 15 8 64 35 NW 1005,2 70 0 0,4
14.01.2019 16:00:00 0,6 -5,1 -0,3 2,1 3,0 5,1 21 11 57 31 WNW 1002,4 70 0 0,0
14.01.2019 15:00:00 0,6 -2,9 0,5 2,4 3,0 5,1 23 12 49 26 W 1002,1 7 3 0,1
14.01.2019 14:00:00 2,1 -5,8 2,4 2,5 2,9 5,1 27 15 58 32 WNW 1001,2 35 40 0,0
14.01.2019 13:00:00 2,2 -5,8 3,6 2,3 2,9 5,1 29 16 56 30 WNW 1000,9 57 51 0,0
14.01.2019 12:00:00 1,7 -4,3 3,2 2,1 3,0 5,1 29 15 55 30 WNW 1000,6 20 42 0,0
14.01.2019 11:00:00 1,3 -2,9 2,1 1,8 3,1 5,1 31 17 61 33 WNW 1000,5 24 5 0,0
14.01.2019 10:00:00 1,3 -3,6 1,0 1,9 3,2 5,1 33 18 50 27 WNW 999,4 36 0 0,0
14.01.2019 09:00:00 1,5 -4,1 0,9 2,1 3,2 5,1 22 12 64 35 WNW 998,9 42 0 0,0
14.01.2019 08:00:00 1,9 -4,8 0,9 2,4 3,3 5,1 36 20 61 33 WNW 997,6 44 0 0,0
14.01.2019 07:00:00 2,8 -1,7 2,0 2,6 3,4 5,0 30 16 61 33 WNW 996,2 21 0 0,1
14.01.2019 06:00:00 3,3 -1,0 2,1 2,7 3,5 5,1 30 16 58 31 WNW 994,9 33 0 0,0
14.01.2019 05:00:00 3,4 -0,5 2,1 2,9 3,5 5,0 30 16 55 30 WNW 993,2 37 0 0,0
14.01.2019 04:00:00 2,7 0,5 1,5 3,1 3,6 5,1 33 18 60 33 WNW 992,2 59 0 0,3
14.01.2019 03:00:00 3,3 1,1 2,0 3,4 3,6 5,0 34 18 53 29 WNW 990,7 70 0 2,5
14.01.2019 02:00:00 5,0 2,6 3,8 3,7 3,6 5,0 30 16 49 26 W 989,6 64 0 0,0
14.01.2019 01:00:00 5,0 2,9 4,0 3,7 3,6 5,0 25 14 49 27 WNW 989,6 62 0 0,3
14.01.2019 00:00:00 4,7 2,9 3,9 3,8 3,6 5,0 29 16 53 28 W 989,4 9 0 0,1
13.01.2019 23:00:00 5,1 2,5 4,4 3,8 3,5 5,0 27 15 58 31 W 989,3 70 0 0,0
13.01.2019 22:00:00 4,7 2,1 3,6 4,0 3,5 5,0 27 14 71 39 WNW 988,9 70 0 3,6
13.01.2019 21:00:00 6,3 5,2 5,3 3,8 3,4 5,1 28 15 48 26 W 988,3 70 0 2,9
13.01.2019 20:00:00 5,8 4,8 5,0 3,7 3,3 5,1 27 15 37 20 WSW 989,5 5 0 1,1
13.01.2019 19:00:00 5,4 4,6 4,7 3,6 3,3 5,1 22 12 46 25 WSW 990,6 70 0 0,0
13.01.2019 18:00:00 5,4 4,1 4,5 3,4 3,2 5,1 25 14 41 22 WSW 992,1 23 0 0,0
13.01.2019 17:00:00 4,6 3,8 4,0 3,4 3,2 5,1 24 13 36 20 WSW 993,2 11 0 0,4
13.01.2019 16:00:00 3,9 2,7 3,4 3,4 3,1 5,0 24 13 38 21 SW 994,4 13 0 0,7
13.01.2019 15:00:00 3,9 2,8 3,6 3,5 3,1 5,0 24 13 40 22 SW 995,8 6 0 0,8
13.01.2019 14:00:00 4,1 2,8 3,7 3,4 3,0 5,1 21 12 38 20 SW 997,5 15 0 0,8
13.01.2019 13:00:00 4,4 2,6 3,8 3,4 2,9 5,1 26 14 42 23 WSW 999,3 12 0 0,2
13.01.2019 12:00:00 4,7 2,6 4,5 3,2 2,8 5,1 24 13 42 23 WSW 1000,6 55 0 0,0
13.01.2019 11:00:00 4,6 2,5 4,2 3,0 2,7 5,1 26 14 46 25 WSW 1001,7 70 0 0,0
13.01.2019 10:00:00 4,2 2,7 3,8 2,8 2,7 5,1 28 15 42 23 W 1002,7 31 0 0,0
13.01.2019 09:00:00 3,7 2,8 3,3 2,6 2,6 5,1 23 12 47 26 W 1003,6 18 0 0,0
13.01.2019 08:00:00 3,9 2,7 3,2 2,5 2,6 5,1 23 13 40 21 W 1003,7 40 0 0,2
13.01.2019 07:00:00 3,6 2,8 3,1 2,5 2,5 5,1 20 11 39 21 W 1003,8 19 0 0,0
13.01.2019 06:00:00 3,5 2,6 3,0 2,4 2,5 5,1 25 13 46 25 W 1004,1 30 0 0,1
13.01.2019 05:00:00 3,5 2,5 2,9 2,3 2,4 5,1 24 13 48 26 W 1004,3 7 0 0,1
13.01.2019 04:00:00 3,4 2,2 2,8 2,2 2,4 5,1 23 12 38 20 W 1004,5 11 0 0,1
13.01.2019 03:00:00 3,1 2,2 2,5 2,2 2,4 5,1 20 11 32 18 WSW 1005,0 32 0 0,0
13.01.2019 02:00:00 2,4 1,5 2,0 2,2 2,3 5,1 22 12 39 21 W 1005,4 17 0 0,1
13.01.2019 01:00:00 3,4 2,0 2,6 2,1 2,3 5,1 21 11 39 21 W 1005,1 31 0 0,0
13.01.2019 00:00:00 3,3 1,8 2,5 2,0 2,3 5,1 21 11 36 19 W 1005,5 41 0 0,0
12.01.2019 23:00:00 3,3 1,8 2,4 2,0 2,2 5,1 22 12 42 23 W 1006,0 15 0 0,0
12.01.2019 22:00:00 3,0 1,8 2,3 1,9 2,2 5,2 26 14 42 23 W 1006,5 24 0 0,4
12.01.2019 21:00:00 2,6 1,6 2,0 1,8 2,2 5,2 24 13 43 23 WSW 1006,9 6 0 0,8
12.01.2019 20:00:00 2,1 1,3 1,6 1,8 2,2 5,2 21 11 32 18 SW 1007,7 7 0 0,8
12.01.2019 19:00:00 2,0 0,9 1,5 1,9 2,1 5,2 24 13 35 19 SW 1008,5 12 0 0,3
12.01.2019 18:00:00 2,5 1,3 1,8 1,9 2,0 5,2 20 11 30 16 WSW 1009,4 5 0 0,5
12.01.2019 17:00:00 3,0 1,0 2,1 1,9 2,0 5,2 20 11 32 17 WSW 1010,1 48 0 0,0
12.01.2019 16:00:00 3,4 1,1 2,5 1,9 1,9 5,2 20 11 36 19 WSW 1010,8 60 0 0,0
12.01.2019 15:00:00 3,4 1,5 2,8 1,7 1,8 5,2 21 11 39 21 WSW 1011,6 45 0 0,0
12.01.2019 14:00:00 2,9 2,0 2,6 1,3 1,7 5,2 21 11 36 19 W 1012,2 10 0 0,0
12.01.2019 13:00:00 2,9 1,7 2,6 1,0 1,7 5,2 26 14 36 19 W 1013,0 9 0 0,0
12.01.2019 12:00:00 2,3 1,6 1,9 0,9 1,8 5,2 21 11 38 20 W 1014,0 7 0 0,1
12.01.2019 11:00:00 2,6 1,1 1,8 0,9 1,8 5,2 16 9 29 16 W 1014,9 13 0 0,0
12.01.2019 10:00:00 2,4 1,1 1,3 0,9 1,8 5,2 18 10 30 16 W 1015,2 6 0 0,0
12.01.2019 09:00:00 2,4 0,3 1,0 0,9 1,8 5,2 16 9 30 16 W 1015,5 17 0 0,0
12.01.2019 08:00:00 2,3 0,6 0,9 0,9 1,8 5,3 17 9 32 17 W 1015,2 13 0 0,0
12.01.2019 07:00:00 2,3 1,2 0,8 0,9 1,8 5,3 16 9 31 17 W 1015,1 12 0 0,0
12.01.2019 06:00:00 2,3 1,4 0,3 0,9 1,8 5,3 22 12 37 20 W 1014,8 11 0 0,0
12.01.2019 05:00:00 2,5 1,6 0,1 0,9 1,8 5,3 21 11 33 18 W 1014,6 11 0 0,0
12.01.2019 04:00:00 2,3 1,5 0,1 0,9 1,8 5,3 16 8 29 16 WNW 1015,2 11 0 0,0
12.01.2019 03:00:00 2,4 1,6 0,1 0,9 1,8 5,3 16 8 31 17 WNW 1014,9 11 0 0,0
12.01.2019 02:00:00 2,3 1,4 0,1 0,9 1,8 5,3 18 10 34 18 W 1014,2 12 0 0,0
12.01.2019 01:00:00 2,3 1,4 0,1 0,9 1,8 5,3 17 9 37 20 WNW 1013,9 11 0 0,0
12.01.2019 00:00:00 2,2 1,5 0,1 0,9 1,9 5,3 22 12 40 21 W 1013,7 8 0 0,0
11.01.2019 23:00:00 2,1 1,5 0,1 0,9 1,9 5,3 22 12 36 19 W 1013,6 8 0 0,2
11.01.2019 22:00:00 1,6 1,2 0,1 1,0 1,9 5,4 20 11 36 19 W 1013,8 8 0 0,1
11.01.2019 21:00:00 1,4 0,9 0,1 1,0 1,9 5,4 21 12 36 20 W 1014,1 10 0 0,2
11.01.2019 20:00:00 1,0 0,8 0,1 1,0 1,9 5,4 17 9 28 15 WSW 1014,3 11 0 0,2
11.01.2019 19:00:00 0,2 -0,1 0,1 1,0 1,9 5,3 16 9 27 14 SW 1014,6 2,6 0 0,2
11.01.2019 18:00:00 -1,0 -1,4 0,1 1,0 1,9 5,3 19 10 31 17 SSW 1015,0 1,9 0 0,0
11.01.2019 17:00:00 -1,4 -2,3 0,1 1,0 1,9 5,3 23 12 36 19 SSW 1015,6 4,3 0 0,0
11.01.2019 16:00:00 -1,8 -2,7 0,1 1,0 1,9 5,3 24 13 33 18 SSW 1016,2 2,9 0 0,1
11.01.2019 15:00:00 -1,9 -2,9 0,1 1,0 1,9 5,3 24 13 34 19 SSW 1016,7 3,4 0 0,1
11.01.2019 14:00:00 -2,0 -3,0 0,1 1,0 1,9 5,3 26 14 34 18 SSW 1017,4 2,6 0 0,0
11.01.2019 13:00:00 -2,0 -3,6 0,1 1,0 1,9 5,3 23 12 29 16 SSW 1018,7 4,7 0 0,0
11.01.2019 12:00:00 -2,0 -4,2 0,1 1,0 1,9 5,3 21 12 29 16 SW 1020,0 9 0 0,0
11.01.2019 11:00:00 -2,3 -4,6 0,1 1,1 2,0 5,4 20 11 27 15 SW 1020,7 12 0 0,0
11.01.2019 10:00:00 -2,7 -5,3 0,1 1,1 2,0 5,4 18 10 27 15 SW 1021,3 25 0 0,0
11.01.2019 09:00:00 -3,0 -5,1 -0,1 1,1 2,0 5,4 18 10 23 13 SSW 1021,6 15 0 0,0
11.01.2019 08:00:00 -3,3 -5,0 -0,5 1,1 2,0 5,4 16 9 21 11 SSW 1022,2 14 0 0,0
11.01.2019 07:00:00 -3,8 -5,6 -1,6 1,1 2,0 5,4 13 7 16 9 SSW 1022,6 24 0 0,0
11.01.2019 06:00:00 -5,1 -6,5 -2,3 1,1 2,0 5,4 7 4 16 8 SW 1023,2 26 0 0,0
11.01.2019 05:00:00 -5,5 -5,8 -2,3 1,0 1,9 5,4 8 4 11 6 WSW 1023,7 8 0 0,0
11.01.2019 04:00:00 -4,0 -5,0 -0,8 1,0 1,9 5,4 10 5 20 11 WSW 1024,0 16 0 0,0
11.01.2019 03:00:00 -3,1 -4,3 -0,9 1,0 1,9 5,4 9 5 16 9 WNW 1024,2 25 0 0,0
11.01.2019 02:00:00 -3,0 -4,7 -0,6 1,0 1,9 5,4 6 3 16 9 WNW 1024,1 62 0 0,0
11.01.2019 01:00:00 -2,3 -3,6 -0,4 1,0 1,9 5,4 10 5 22 12 NW 1024,0 49 0 0,0

tt = Température de l'air
td = dewpoint
tt 5cm = Température de l'air 5cm
tt -5cm = Température de l'air -5cm
tt -20cm = Température de l'air -20cm
tt -100cm = Température de l'air -100cm
ff = Vitesse du vent
fx = gusts
dd = Direction du vent
ppp = reduced air pressure
vv = visibility
sd = Ensoleillement
rr = Quantités de précipitations

stations d'obs. à proximité